Elko, NV

7:26 AM PDT on August 27, 2016 (GMT -0700)
Elko Regional

Weather History for KEKO - November, 2013

Change the Weather History Date:

Sunday, November 10, 2013

  Actual Average Record
Temperature  
Mean Temperature 44 °F 37 °F  
Max Temperature 64 °F 51 °F 74 °F (1894)
Min Temperature 24 °F 23 °F -3 °F (1898)
Degree Days  
Heating Degree Days 21 28  
Month to date heating degree days 239 262  
Since 1 July heating degree days 1016 1091  
Cooling Degree Days 0 0  
Month to date cooling degree days 0 0  
Year to date cooling degree days 776 383  
Moisture  
Dew Point 20 °F    
Average Humidity 46    
Maximum Humidity 74    
Minimum Humidity 17    
Precipitation  
Precipitation 0.00 in 0.04 in 0.80 in (1901)
Month to date precipitation T 0.36  
Year to date precipitation 5.45 7.96  
Snow  
Snow 0.00 in 0.10 in 5.00 in (1924)
Month to date snowfall T 0.8  
Since 1 July snowfall 2.9 1.5  
Since 1 September snowfall 2.9 1.5  
Snow Depth 0.00 in    
Sea Level Pressure  
Sea Level Pressure 30.25 in    
Wind  
Wind Speed 3 mph (ENE)    
Max Wind Speed 9 mph    
Max Gust Speed 11 mph    
Visibility 10 miles    
Events      
T = Trace of Precipitation, MM = Missing Value Source: NWS Daily Summary

Daily Weather History Graph

Daily Weather History Graph

Search for Another Location

Airport or City:

Trip Planner

Search our weather history database for the weather conditions in past years. The results will help you decide how hot, cold, wet, or windy it might be!

Date:

Astronomy

Nov. 10, 2013 Rise Set
Actual Time 6:24 AM PST 4:29 PM PST
Civil Twilight 5:55 AM PST 4:58 PM PST
Nautical Twilight 5:22 AM PST 5:30 PM PST
Astronomical Twilight 4:50 AM PST 6:03 PM PST
Moon 12:39 PM PST (11/10) No Moon Set
Length of Visible Light 11h 02m
Length of Day
10h 04m
First Quarter, 56% of the Moon is Illuminated
Nov 10
First Quarter
Nov 17
Full
Nov 25
Last Quarter
Dec 2
New
Dec 9
First Quarter

Hourly Weather History & Observations

Time (PST) Temp. Windchill Dew Point Humidity Pressure Visibility Wind Dir Wind Speed Gust Speed Precip Events Conditions
12:56 AM 28.9 °F - 19.0 °F 67% 30.22 in 10.0 mi Calm Calm - N/A   Clear
1:56 AM 28.9 °F 23.9 °F 19.0 °F 67% 30.22 in 10.0 mi ENE 4.6 mph - N/A   Clear
2:56 AM 28.0 °F 24.2 °F 18.0 °F 66% 30.22 in 10.0 mi ENE 3.5 mph - N/A   Clear
3:56 AM 26.1 °F 21.9 °F 17.1 °F 69% 30.24 in 10.0 mi ENE 3.5 mph - N/A   Clear
4:56 AM 26.1 °F 20.5 °F 17.1 °F 69% 30.27 in 10.0 mi ENE 4.6 mph - N/A   Clear
5:56 AM 25.0 °F 20.7 °F 17.1 °F 72% 30.31 in 10.0 mi East 3.5 mph - N/A   Clear
6:56 AM 26.1 °F 21.9 °F 17.1 °F 69% 30.34 in 10.0 mi East 3.5 mph - N/A   Clear
7:56 AM 28.9 °F 23.9 °F 18.0 °F 64% 30.35 in 10.0 mi East 4.6 mph - N/A   Clear
8:56 AM 36.0 °F - 19.9 °F 52% 30.33 in 10.0 mi Calm Calm - N/A   Clear
9:56 AM 45.0 °F - 21.9 °F 40% 30.30 in 10.0 mi Calm Calm - N/A   Clear
10:56 AM 51.1 °F - 21.0 °F 31% 30.27 in 10.0 mi Calm Calm - N/A   Clear
11:56 AM 55.9 °F - 21.0 °F 26% 30.23 in 10.0 mi Calm Calm - N/A   Clear
12:56 PM 61.0 °F - 19.9 °F 21% 30.19 in 10.0 mi Calm Calm - N/A   Clear
1:56 PM 62.1 °F - 19.9 °F 20% 30.18 in 10.0 mi Calm Calm - N/A   Clear
2:56 PM 63.0 °F - 19.0 °F 18% 30.17 in 10.0 mi WSW 3.5 mph - N/A   Clear
3:56 PM 63.0 °F - 18.0 °F 18% 30.17 in 10.0 mi Calm Calm - N/A   Clear
4:56 PM 52.0 °F - 21.0 °F 30% 30.22 in 10.0 mi North 4.6 mph - N/A   Clear
5:56 PM 46.0 °F 43.9 °F 21.0 °F 37% 30.25 in 10.0 mi East 4.6 mph - N/A   Clear
6:56 PM 39.0 °F - 23.0 °F 53% 30.27 in 10.0 mi Calm Calm - N/A   Clear
7:56 PM 39.0 °F - 21.9 °F 50% 30.28 in 10.0 mi Calm Calm - N/A   Clear
8:56 PM 37.0 °F 33.3 °F 21.0 °F 52% 30.28 in 10.0 mi East 4.6 mph - N/A   Clear
9:56 PM 35.1 °F 30.1 °F 19.9 °F 54% 30.27 in 10.0 mi East 5.8 mph - N/A   Clear
10:56 PM 33.1 °F 26.9 °F 19.0 °F 56% 30.27 in 10.0 mi ENE 6.9 mph - N/A   Clear
11:56 PM 32.0 °F 24.8 °F 19.0 °F 59% 30.27 in 10.0 mi ENE 8.1 mph - N/A   Clear